RH
92 94 97 99 100 99 100 100 100 101 98 96 96 92 82 76 77 77 71 67 67 66 68 74 77 75 72 67 64 64 64 63 57 49 48 49 46 44 45 44 43 43 42 39 40 43 42 43 52 58 55 54 52 49 56 62 57 57 59 55 59 64 56 47 43 38 35 34 35 38 41 44 48 52 55 53 46 40 35 33 39 45 44 45 39 30 53
96 96 98 100 100 100 100 100 100 100 100 102 98 85 76 78 80 78 73 67 67 69 64 62 67 74 76 73 65 59 62 63 55 50 52 52 50 49 47 43 41 41 46 47 46 49 49 45 49 57 56 52 48 48 54 57 54 57 61 60 62 62 57 52 49 48 45 42 41 38 37 44 53 60 67 64 56 51 46 43 42 40 44 47 35 29 59
99 98 98 100 99 100 100 99 101 100 97 99 96 84 75 74 73 70 67 64 67 73 70 65 68 79 84 77 66 61 58 56 55 53 53 52 50 51 49 46 46 46 51 55 50 47 52 51 49 55 61 58 51 50 53 54 59 68 69 65 65 69 75 67 52 52 54 51 49 45 43 48 54 62 71 71 71 67 55 43 35 33 47 52 33 33 69
100 99 98 99 100 100 100 100 101 96 87 85 88 84 76 70 70 70 66 65 67 71 75 74 70 75 79 69 62 65 58 50 51 53 51 48 46 49 48 44 47 49 52 60 57 47 49 52 50 53 63 67 63 60 59 56 58 70 72 65 66 80 93 86 66 56 50 48 54 57 59 64 66 71 77 80 86 85 62 39 32 37 48 50 44 58 87
100 99 99 99 99 100 100 100 99 89 77 75 82 84 73 63 66 72 69 66 65 64 68 75 73 69 69 63 60 64 60 53 52 49 47 46 47 51 48 43 48 52 54 63 62 50 48 49 49 52 55 59 62 64 68 63 56 62 65 63 71 80 83 86 86 78 68 65 69 68 69 78 85 88 88 85 88 87 68 52 53 52 40 39 59 81 93
99 100 100 98 98 100 100 101 97 83 74 76 80 78 69 58 60 69 66 59 60 57 55 70 78 70 69 74 70 65 62 59 55 48 46 46 45 50 53 48 49 52 55 59 57 54 55 51 51 54 50 52 57 57 65 67 57 57 57 58 71 79 77 83 89 89 87 81 76 72 72 77 83 87 90 90 91 92 87 83 86 74 49 48 74 90 94
98 100 99 96 98 101 99 101 97 82 77 82 78 71 68 63 62 69 66 60 65 66 64 73 75 65 71 78 69 62 61 56 52 49 52 55 51 51 54 51 50 52 54 55 53 54 56 51 53 57 54 62 67 60 63 65 56 56 61 61 68 73 79 88 87 85 90 86 77 75 74 76 79 82 86 87 89 92 92 93 95 86 75 79 90 95 98
97 100 97 90 94 100 99 101 97 83 80 86 78 68 68 66 65 69 66 63 72 76 75 76 68 61 67 64 55 60 61 52 52 53 52 57 55 50 49 48 53 58 56 54 50 47 50 50 52 53 52 62 71 68 71 70 60 62 70 70 67 63 71 87 86 79 84 86 80 76 75 77 81 85 86 86 89 92 92 96 98 94 93 95 95 98 101
98 101 93 80 85 97 100 101 97 83 80 85 78 69 69 68 67 66 60 61 68 68 69 73 65 57 61 58 56 61 56 52 60 56 47 49 50 46 45 48 58 68 71 71 61 48 47 50 49 47 45 50 57 61 68 68 65 77 88 87 84 75 74 83 78 70 80 88 83 80 81 80 81 89 96 94 93 93 93 95 98 97 99 98 96 99 102
100 100 88 74 80 94 99 101 98 85 78 80 75 71 72 72 69 64 59 60 62 60 64 67 58 52 57 64 68 65 56 57 60 50 42 46 44 43 48 51 55 62 70 75 68 54 50 48 45 43 39 39 43 46 53 54 52 68 86 95 98 88 76 76 73 67 79 92 89 84 82 78 82 92 99 99 96 94 94 95 94 95 98 96 94 97 98
101 98 84 72 76 87 94 100 98 84 76 78 74 71 74 73 69 66 62 56 54 59 62 56 52 56 59 59 64 64 61 61 57 47 46 50 47 48 54 53 50 52 56 60 62 60 55 47 44 44 41 45 49 46 49 53 49 54 66 80 94 93 82 82 81 72 79 93 96 89 81 81 91 95 94 97 95 91 95 97 94 93 94 92 93 96 95
101 97 85 74 69 73 82 92 93 82 73 73 71 69 73 72 67 68 67 56 52 59 58 51 55 62 60 57 60 61 58 54 53 54 56 58 58 55 52 51 50 47 44 46 52 57 57 51 49 50 50 54 57 51 48 52 53 55 61 67 78 84 81 83 83 77 80 89 90 88 89 92 96 92 87 88 87 86 92 94 91 91 92 92 94 95 95
100 96 87 74 62 61 69 77 81 76 69 67 68 68 68 65 64 69 69 56 50 55 53 50 57 60 57 60 60 57 57 56 59 66 65 63 65 60 52 49 48 42 38 41 48 55 61 63 60 59 61 64 63 55 51 55 58 57 61 65 70 72 71 75 80 80 83 84 82 88 98 97 92 89 87 85 84 87 91 92 92 92 90 91 96 97 94
99 96 88 71 56 56 60 63 67 68 63 61 64 64 63 61 63 71 72 58 52 60 58 49 52 56 58 62 59 55 60 62 62 65 66 65 66 63 56 46 39 38 40 47 56 59 60 66 66 64 66 68 66 59 56 65 71 63 57 61 66 66 64 65 73 79 81 84 86 90 96 94 90 90 91 91 93 95 97 96 97 95 88 86 95 98 94
98 96 86 67 54 53 54 55 58 59 56 55 56 56 58 59 54 57 67 64 54 58 56 44 45 54 56 59 58 53 56 60 58 55 59 64 63 58 51 41 36 40 44 53 65 63 57 61 66 67 68 66 66 66 60 62 69 66 61 59 59 63 64 61 68 74 72 75 85 89 91 93 92 87 85 87 90 95 98 97 97 97 91 86 93 98 96
99 94 82 64 52 50 51 52 52 52 51 51 50 46 45 47 38 33 52 67 55 43 42 42 51 59 54 53 57 53 51 57 57 52 52 56 55 47 40 38 44 51 52 58 69 66 58 59 60 65 71 68 65 68 66 61 60 60 60 57 53 60 63 58 64 73 70 71 83 91 93 94 90 86 83 81 84 93 98 96 95 97 92 86 89 94 96
99 94 83 66 52 48 49 49 48 48 47 46 47 45 38 35 29 23 41 63 55 40 45 53 60 61 52 50 55 53 51 56 57 52 49 49 52 48 39 40 48 51 53 63 69 65 62 64 63 66 71 69 65 65 65 66 66 61 59 55 52 59 63 60 65 75 76 80 90 95 93 90 87 85 83 80 84 91 93 90 93 96 90 85 88 91 92
99 95 85 69 52 46 48 48 45 44 44 41 42 44 38 30 24 21 39 62 56 42 44 50 52 51 45 44 49 49 51 56 54 52 53 52 49 43 38 43 47 44 48 61 66 62 62 66 71 74 71 66 64 64 64 69 72 69 67 65 63 65 68 68 71 74 74 81 92 95 89 86 85 83 82 85 89 89 87 90 95 96 90 84 85 87 87
99 96 88 70 52 45 47 47 44 42 41 39 39 41 39 32 23 19 36 60 58 43 39 41 42 43 42 44 49 51 53 54 51 51 53 49 45 44 45 49 49 46 54 64 63 59 59 59 63 70 71 69 67 65 66 72 73 70 70 72 74 75 74 75 80 80 75 73 79 84 86 85 84 81 79 85 91 89 87 90 91 90 88 84 84 87 88
100 98 89 71 53 45 45 46 46 41 37 37 39 41 38 31 24 19 28 48 56 47 39 37 35 34 36 41 45 47 52 55 53 50 47 45 48 51 48 45 46 47 55 65 64 58 55 53 53 58 62 65 65 62 64 68 67 66 68 71 76 78 77 80 87 84 75 71 75 84 90 88 83 81 80 85 93 94 90 86 85 88 90 88 90 91 90
100 99 92 75 56 46 43 45 47 43 36 34 36 39 36 28 23 21 21 33 48 47 37 31 28 27 31 35 36 38 44 47 47 44 45 50 56 52 44 46 52 51 51 57 60 55 50 48 50 54 56 57 58 58 60 64 64 62 63 67 72 74 72 77 84 81 77 83 91 94 92 87 82 84 89 92 93 94 89 84 87 94 94 92 95 94 89
100 99 98 84 62 47 42 44 48 45 37 33 32 35 37 30 25 24 20 23 36 41 34 30 28 25 26 27 28 31 35 36 37 38 41 49 55 53 49 51 54 54 52 50 47 46 48 47 48 52 55 58 61 61 60 63 65 64 63 65 69 73 70 71 79 82 80 83 87 82 77 74 74 79 87 88 86 87 85 81 84 92 94 93 95 94 89
100 100 99 86 64 48 41 42 48 47 36 31 33 37 40 36 28 24 22 25 34 34 25 24 27 27 29 29 27 28 32 34 35 36 37 40 46 51 51 50 51 56 58 53 46 44 49 50 49 51 53 56 60 62 58 59 64 66 65 63 64 69 72 70 72 75 73 72 71 68 67 68 67 69 74 77 79 84 85 82 82 88 93 94 95 94 91
100 100 99 85 63 48 41 40 47 46 33 28 33 37 41 39 29 24 25 33 46 46 33 32 38 37 35 33 26 26 32 32 30 32 35 36 40 43 45 48 51 51 53 60 61 54 50 51 50 51 54 54 53 55 58 59 59 59 61 62 61 63 68 69 69 70 72 71 69 67 68 69 66 65 66 69 74 79 82 85 89 91 92 92 91 90 87
100 100 99 85 63 47 41 41 46 42 30 28 34 37 41 41 34 30 28 32 50 58 47 43 45 36 29 30 26 26 32 29 24 26 29 31 36 39 41 46 48 46 52 66 67 53 45 48 49 49 53 53 51 53 58 58 56 57 60 62 60 58 61 67 71 72 74 73 69 66 66 66 63 63 65 66 69 74 76 80 85 88 88 87 85 84 86
100 100 98 85 63 47 41 42 44 37 27 29 35 37 44 46 38 32 29 30 47 58 51 49 48 33 25 29 29 28 30 26 21 21 22 24 29 31 34 44 49 50 58 68 66 55 48 48 49 49 51 53 53 54 56 57 57 59 61 62 61 59 62 67 70 71 71 70 67 63 63 64 63 62 63 64 64 67 70 71 73 77 81 84 84 82 82
99 100 99 84 61 47 42 43 44 38 30 32 33 30 37 45 41 37 35 36 44 48 42 44 48 38 30 31 30 28 28 23 18 19 21 24 24 22 29 45 53 55 57 57 55 53 49 46 48 51 53 57 58 56 57 59 59 56 57 60 61 61 63 65 62 61 63 66 65 63 63 65 65 62 63 64 62 63 66 68 69 71 74 80 85 85 81
99 100 97 81 58 46 44 46 47 43 37 39 40 32 28 33 39 42 40 36 43 49 46 44 46 41 35 32 29 28 28 23 20 22 24 25 24 25 34 48 54 57 58 52 45 43 41 41 45 45 46 50 52 53 56 58 57 57 58 61 63 64 66 64 59 59 63 65 65 64 63 63 64 62 61 62 61 61 64 66 67 68 69 72 77 82 83
100 98 89 73 55 45 48 53 53 49 45 47 52 46 34 27 32 43 43 35 36 48 53 51 48 43 37 34 31 28 26 23 22 24 25 28 30 34 43 52 56 59 57 49 42 40 39 42 44 43 46 50 48 48 53 55 56 60 61 60 64 70 71 67 63 61 63 64 65 65 63 61 61 61 60 60 61 61 61 62 62 63 65 66 67 70 73
100 92 78 64 51 46 53 59 57 53 51 52 57 58 50 34 26 35 46 39 30 38 49 51 46 43 41 40 37 32 28 25 23 25 30 36 40 42 45 49 57 62 55 45 41 40 40 43 45 47 57 62 52 44 49 53 53 56 57 58 64 70 71 72 71 66 64 67 70 68 62 58 58 56 55 58 62 62 61 62 62 60 60 61 61 61 63
97 84 70 59 50 47 54 59 56 53 54 56 59 65 65 47 28 32 46 41 28 34 49 50 44 44 47 45 39 35 33 29 26 29 35 39 41 41 38 39 48 52 47 42 44 43 39 41 43 45 55 63 56 46 46 49 49 49 52 57 62 66 67 71 71 67 64 64 62 59 57 57 54 49 48 54 59 60 61 65 66 62 59 60 62 62 63
90 77 66 56 48 46 51 51 51 54 57 56 54 56 55 43 31 38 49 41 29 36 47 47 43 44 47 45 39 34 33 33 33 36 38 39 43 42 40 45 54 54 49 48 47 42 40 43 44 43 49 57 58 50 46 46 47 50 52 55 59 63 65 65 63 60 59 58 54 51 52 56 57 56 59 63 61 57 60 65 66 64 61 62 64 65 65
83 72 62 52 46 46 47 46 51 58 59 52 44 38 35 32 35 46 48 38 33 40 46 49 49 46 44 44 40 34 34 42 47 44 39 42 50 50 46 54 60 52 45 47 46 41 42 46 43 41 48 54 52 46 43 46 50 51 52 54 57 60 62 61 58 55 55 58 59 55 50 55 62 64 62 61 60 61 64 66 65 62 60 60 61 63 64
75 67 59 49 44 43 43 48 58 61 55 47 41 35 29 31 42 51 45 33 33 40 43 49 52 46 41 45 44 36 37 48 52 44 36 41 50 48 44 50 54 45 38 44 46 44 46 48 42 39 44 49 48 46 46 47 49 50 51 54 56 58 57 57 54 51 52 57 61 60 59 61 64 61 55 53 58 63 65 64 60 58 56 57 59 62 64
70 65 55 44 39 41 46 55 61 59 51 46 42 35 29 32 43 48 40 31 34 43 47 51 52 46 42 46 46 38 39 48 52 47 41 42 45 47 45 44 43 42 43 45 45 43 45 49 46 40 40 45 48 49 47 45 47 50 51 49 51 53 53 52 49 49 55 60 60 60 62 61 59 57 54 53 56 60 61 60 57 54 54 56 59 63 65
67 59 48 39 42 50 58 61 59 55 51 48 41 31 28 37 46 46 38 32 34 44 54 56 52 48 46 45 44 41 39 44 49 52 51 47 44 48 51 43 39 46 53 49 44 43 46 50 48 42 43 47 47 46 48 51 51 52 50 49 52 53 50 50 50 50 55 61 62 61 59 56 54 57 56 53 54 57 57 57 56 54 53 56 59 62 64
61 53 47 48 54 60 64 62 57 51 46 44 41 35 33 40 45 42 40 38 35 44 59 58 49 50 54 48 44 44 41 41 45 47 49 47 43 44 47 45 45 53 55 46 41 43 47 51 51 45 45 50 49 49 55 59 58 55 53 53 57 57 55 58 60 54 50 54 57 57 54 50 50 54 53 51 54 56 54 54 55 54 53 55 58 60 61
57 56 57 60 64 70 70 62 52 46 42 44 46 42 38 43 46 42 45 47 41 45 59 57 48 55 62 53 45 44 42 42 46 44 41 43 42 39 41 45 49 53 48 42 42 46 47 51 53 48 46 51 53 54 59 62 62 63 60 56 57 59 60 63 60 50 43 45 47 46 44 42 43 48 50 50 53 56 54 53 54 55 55 56 58 60 62
62 66 65 63 65 70 67 52 44 46 46 46 46 41 38 45 48 43 45 50 46 46 56 56 52 59 61 50 43 45 45 44 46 42 39 41 41 37 38 41 46 48 46 42 42 43 42 46 50 48 47 50 50 51 58 63 63 64 63 62 63 65 65 64 59 50 45 45 45 45 45 42 40 44 49 52 54 56 57 56 54 54 55 55 56 61 64
69 68 63 57 56 58 55 46 46 53 52 46 43 41 40 44 45 43 47 51 46 44 50 51 51 58 63 55 48 45 43 42 44 42 41 43 45 44 40 38 42 49 49 44 42 43 45 48 50 47 46 46 45 49 59 62 59 59 62 65 66 64 62 62 61 57 55 55 55 56 57 52 47 46 49 52 54 54 55 55 51 47 47 47 50 54 56
71 64 57 52 50 51 49 45 43 45 46 44 44 43 42 42 43 48 54 52 45 45 52 52 47 50 57 59 53 44 40 45 51 50 45 43 47 49 43 38 43 51 49 45 45 46 45 47 47 44 43 44 47 54 60 58 54 56 60 62 61 58 56 57 57 56 56 58 57 56 53 50 47 45 45 46 48 48 48 49 47 43 41 42 43 45 45
69 62 56 52 48 45 42 39 36 36 39 42 44 46 48 46 43 46 49 48 45 47 51 52 49 47 47 50 50 46 44 46 50 48 43 40 44 49 46 42 45 47 45 46 48 46 50 59 59 47 41 47 55 60 59 54 52 56 58 58 57 55 54 56 56 53 50 50 49 47 44 41 41 42 41 41 43 45 45 46 47 45 44 43 44 44 44
66 60 55 50 45 40 39 40 41 42 44 46 47 47 49 49 46 44 46 48 50 50 47 47 51 50 46 46 48 48 46 45 44 44 44 43 45 48 48 48 47 43 43 49 48 42 51 67 64 45 39 50 59 60 58 57 58 59 57 56 55 52 51 55 55 52 50 50 47 44 43 42 41 41 41 40 41 42 42 42 42 41 40 42 44 45 44
63 56 54 52 48 43 40 40 41 40 42 48 49 47 47 49 49 47 46 47 48 49 50 53 53 48 46 49 50 46 43 42 42 43 46 48 49 50 50 50 50 46 47 52 52 47 52 58 52 44 50 60 61 58 59 60 58 56 53 53 53 49 46 48 50 50 51 51 47 44 43 42 40 40 41 41 42 42 41 39 36 35 36 38 40 42 41
56 51 55 55 51 44 40 42 45 42 42 48 52 50 49 51 50 47 50 53 52 51 54 59 57 51 49 51 49 45 43 43 43 45 47 47 49 51 50 49 51 52 52 55 57 55 55 53 47 47 54 56 52 53 57 58 58 58 55 52 52 51 48 49 52 54 52 50 48 47 46 44 43 41 41 40 41 41 41 39 36 34 34 35 36 37 36
56 58 59 54 50 47 44 46 50 46 42 48 53 50 47 49 48 47 53 60 58 53 55 59 56 51 50 48 44 46 50 49 45 49 52 49 47 50 50 48 50 53 55 59 60 54 49 47 47 49 54 56 55 56 58 59 61 62 57 53 55 56 53 51 53 55 52 49 48 49 49 47 46 45 43 42 42 41 41 40 38 36 35 35 34 34 33
53 58 54 45 47 50 46 47 54 53 49 52 56 52 49 53 54 54 60 65 60 55 59 62 56 52 52 49 44 47 53 51 46 48 51 48 48 51 51 49 52 57 60 63 62 54 46 45 49 54 60 63 60 56 56 59 63 64 62 62 65 63 57 53 53 53 51 50 50 51 50 49 48 47 47 47 46 44 42 42 40 38 36 35 34 33 34
52 55 48 42 47 51 47 49 58 60 58 61 62 59 56 56 53 54 63 69 62 56 58 56 48 46 51 52 48 48 51 50 48 48 48 47 50 54 55 56 58 59 55 53 52 48 44 45 50 55 63 66 63 56 55 59 64 66 66 67 67 63 59 58 57 54 51 52 53 53 52 51 50 51 51 50 49 47 46 46 44 42 41 40 38 36 36
50 53 50 51 56 57 55 57 59 58 58 62 63 60 57 54 52 56 65 67 63 63 64 59 51 48 50 52 51 50 49 49 49 49 48 50 55 59 60 63 63 54 45 45 48 48 48 52 56 60 66 69 66 62 62 66 70 70 65 62 61 60 59 58 56 54 53 55 54 52 52 53 53 54 55 56 55 53 50 49 50 48 46 45 43 41 40
48 49 53 59 60 56 57 60 59 55 56 58 57 56 56 53 52 58 64 65 65 65 61 56 54 54 53 53 54 53 51 51 52 50 47 51 57 57 56 60 59 50 43 46 51 50 50 55 59 61 63 66 67 68 69 71 71 68 61 56 55 56 56 56 56 55 56 56 53 52 54 55 55 56 58 60 59 57 54 52 52 51 49 47 46 43 42
55 51 56 65 64 57 56 58 58 57 57 55 54 58 60 57 55 59 63 64 62 57 51 50 54 55 53 55 57 54 51 54 58 55 51 52 55 52 48 48 48 46 45 51 55 54 54 56 57 55 56 62 68 69 67 62 60 58 55 53 54 55 56 59 60 59 58 58 57 57 57 57 56 58 58 57 58 60 59 55 52 51 51 50 48 46 47
60 53 57 67 69 63 57 55 56 59 60 58 59 62 61 58 61 66 65 61 57 52 50 55 58 54 51 53 54 50 50 58 65 63 57 53 52 51 47 45 47 50 51 52 54 55 57 60 63 63 61 61 63 62 58 55 55 55 55 55 56 57 58 60 61 60 60 61 61 61 62 61 59 59 59 59 61 66 65 58 52 51 53 53 51 50 51
Wind_Speed
14 15 16 16 17 18 19 18 17 16 15 10 6 4 1 2 2 2 2 6 2 3 1 1 1 0 1 2 2 1 1 1 2 2 1 1 1 0 1 2 2 2 1 1 1 2 2 1 1 1 0 3 3 5 5 2 3 1 0 0 1 0 1 1 2 1 2 1 2 2 2 2 2 2 3 1 1 1 2 2 1 3 3 2 2 3 2
14 15 16 17 18 19 19 18 17 15 12 8 5 2 1 2 1 2 4 3 3 2 2 1 1 0 2 2 1 1 1 1 1 2 2 1 0 0 1 1 1 1 1 1 2 2 2 1 2 1 1 2 2 6 8 4 2 1 1 2 1 1 1 1 2 2 1 2 2 3 2 1 1 2 3 2 2 1 1 1 1 2 2 2 4 3 2
15 15 16 17 18 19 19 19 17 17 13 6 5 1 1 1 1 1 0 1 2 1 1 0 1 0 2 2 2 3 1 1 1 1 1 2 1 1 1 1 0 1 1 1 1 2 1 1 3 2 0 1 2 6 11 9 4 2 1 4 4 1 0 0 2 4 4 3 2 2 1 0 0 2 4 5 5 2 1 2 3 4 2 2 3 2 2
15 16 16 17 19 19 20 19 18 19 12 6 10 3 0 1 1 0 1 2 2 1 0 0 1 0 0 0 2 2 1 2 1 2 1 1 1 0 1 1 0 2 3 2 2 3 1 1 2 3 3 2 2 5 9 9 7 4 4 5 4 3 2 1 1 1 2 1 0 1 2 1 1 3 5 7 6 3 2 2 2 3 4 3 2 2 5
14 15 16 17 19 19 20 19 19 16 4 11 10 1 0 1 1 1 1 0 1 1 1 1 1 0 1 0 2 2 2 3 1 1 0 1 1 0 1 3 3 2 4 2 2 3 2 1 2 3 4 2 2 3 3 5 12 9 2 2 1 3 2 1 3 3 2 1 1 1 2 3 2 4 6 7 7 4 1 1 1 1 3 3 2 5 7
14 15 16 17 18 19 19 19 18 11 7 10 4 1 1 1 1 1 0 0 1 1 1 1 2 2 0 0 1 2 2 2 1 1 1 1 2 0 1 4 5 3 2 1 1 3 2 2 3 2 3 3 3 2 1 2 10 11 3 1 1 3 2 2 3 3 2 2 2 3 5 5 6 7 7 8 9 6 4 2 3 3 1 0 5 9 7
14 15 16 17 18 19 19 19 17 8 5 4 1 0 0 1 2 0 2 1 1 1 0 1 3 2 1 1 1 1 2 3 1 1 1 2 3 2 1 4 5 3 2 1 1 3 2 2 3 2 3 3 2 3 0 1 7 9 4 3 1 1 2 2 4 4 4 4 4 4 5 5 6 10 9 8 8 8 8 6 5 5 4 4 8 11 8
14 15 15 16 18 19 18 18 17 8 2 2 1 0 0 0 2 1 1 2 1 1 1 1 2 1 2 1 1 1 1 3 3 1 1 1 2 2 2 3 3 3 4 3 2 2 2 2 2 2 3 3 1 2 0 1 5 8 5 3 3 1 2 1 2 4 4 5 5 4 4 5 7 10 11 10 8 8 7 6 6 5 5 6 9 9 7
14 15 14 15 17 19 18 17 17 10 1 2 1 1 1 1 1 1 3 2 2 1 1 1 1 1 1 0 0 1 1 3 3 2 1 1 1 1 2 1 2 2 3 2 2 2 2 4 5 5 4 3 2 2 1 2 2 6 4 3 4 2 2 1 1 3 2 4 5 4 3 4 5 8 11 11 8 5 5 5 5 4 2 6 7 5 4
15 14 13 15 17 18 18 17 16 12 3 2 1 1 1 1 2 1 3 2 2 1 1 1 1 1 0 1 1 1 1 2 1 1 1 1 1 1 1 1 1 1 0 2 4 4 4 6 7 6 5 5 3 3 3 4 4 3 2 1 2 1 3 3 2 3 3 3 3 3 2 0 1 4 6 8 6 5 4 3 5 6 3 2 3 3 4
15 13 13 15 16 17 18 17 16 13 6 0 1 1 1 1 1 1 2 2 1 0 0 0 1 1 1 0 1 2 2 2 1 0 1 1 0 1 1 2 1 0 2 1 1 2 4 6 6 4 3 3 2 1 1 0 3 3 3 1 1 2 3 2 1 1 3 3 2 2 1 2 1 1 5 6 5 7 5 3 6 7 3 3 5 6 7
14 12 12 15 15 16 17 17 15 13 9 3 1 2 1 1 1 1 2 2 1 0 0 1 1 0 1 1 1 2 2 3 2 1 2 2 1 0 1 2 0 0 1 1 2 1 2 3 2 3 1 1 1 2 8 10 7 3 2 3 0 3 3 2 0 1 3 3 1 1 1 0 1 1 5 6 4 6 5 4 6 6 4 7 8 8 9
13 12 12 14 15 15 17 17 15 13 10 6 3 1 1 2 1 1 2 3 1 0 1 1 0 1 1 0 2 2 3 4 3 3 3 3 2 1 1 2 1 1 2 2 1 2 2 0 1 2 3 3 2 3 8 11 10 8 4 2 1 2 3 3 1 1 3 3 1 1 1 2 0 1 6 7 4 5 4 2 5 7 4 5 8 9 10
13 12 12 13 14 15 16 17 15 12 9 7 5 3 1 2 1 0 2 3 2 0 0 0 0 1 0 1 2 2 2 2 2 2 2 2 3 3 2 2 1 2 1 1 1 2 2 1 1 1 1 2 1 2 5 5 3 6 8 6 2 1 3 3 2 1 1 3 3 2 2 1 2 2 5 5 4 5 4 1 3 5 2 5 8 10 10
14 13 12 12 13 14 15 16 15 12 8 7 7 6 4 2 1 1 2 3 2 1 0 0 1 1 1 1 1 2 2 2 2 1 1 1 3 4 3 2 3 2 1 2 1 1 1 1 1 1 1 1 0 1 3 2 1 2 7 7 4 3 1 1 2 1 0 2 4 3 1 1 3 5 6 4 4 5 4 2 2 4 3 6 9 10 10
13 13 12 12 13 13 14 16 15 13 9 7 6 8 8 5 3 4 4 3 3 2 0 1 2 2 1 0 0 1 1 1 2 2 1 1 2 3 3 3 3 0 2 2 1 1 2 2 1 1 1 1 1 0 2 3 2 3 6 7 9 9 5 2 3 2 1 2 4 3 2 1 4 8 9 7 4 4 3 1 1 3 3 5 8 10 9
13 13 12 12 12 12 13 15 14 13 11 7 6 9 11 8 4 4 4 3 3 2 0 2 2 1 1 0 0 0 0 1 1 1 1 2 3 4 5 3 2 1 2 2 1 2 3 2 1 2 2 1 2 1 2 3 3 5 8 8 10 9 5 4 5 3 3 4 3 3 3 2 5 10 11 8 4 1 2 1 2 3 2 4 7 9 9
13 13 12 11 11 11 12 13 13 12 10 8 7 8 11 9 5 5 4 3 3 2 1 3 2 2 1 1 0 0 1 1 1 0 1 1 1 3 5 4 3 1 1 1 1 2 3 2 1 2 2 2 1 1 1 2 2 4 6 4 3 4 3 4 5 4 4 4 4 3 2 2 6 10 10 7 2 2 1 2 2 2 1 5 7 8 7
13 13 12 11 11 11 11 12 12 12 10 7 6 7 10 11 7 6 5 3 2 2 1 3 1 1 1 2 1 0 1 0 1 0 1 1 0 1 3 1 1 1 1 1 2 2 2 1 1 1 1 2 1 2 1 2 2 3 4 2 2 2 2 3 3 3 3 2 3 3 2 2 7 11 9 4 1 1 2 4 3 1 4 7 6 4 4
13 13 13 11 10 10 11 11 11 11 10 7 6 7 10 12 11 10 8 5 3 2 1 1 1 2 3 2 2 1 1 1 0 0 1 1 1 1 0 1 1 1 1 2 2 1 1 2 1 1 2 2 1 2 3 2 2 2 3 3 4 3 1 2 3 2 2 2 3 3 2 2 9 12 6 3 3 2 3 4 4 2 5 6 5 4 5
13 14 13 11 10 10 10 10 11 11 10 7 5 6 8 12 13 13 11 8 4 2 1 0 1 2 3 1 2 3 2 0 1 0 0 1 1 1 1 0 1 1 1 1 1 0 0 2 1 1 2 1 0 1 1 2 4 3 2 2 3 4 2 2 2 2 2 4 4 3 1 4 8 8 3 2 4 4 4 2 2 5 5 4 5 6 7
13 14 13 11 10 9 9 9 10 11 10 7 5 5 6 9 10 10 11 10 7 4 3 2 2 4 4 4 3 2 2 3 3 3 2 1 1 1 1 0 0 0 0 0 1 2 1 1 2 2 2 3 2 2 1 1 3 3 4 2 4 5 3 2 3 3 4 4 3 2 1 3 4 4 2 4 5 5 3 2 5 5 5 4 5 7 8
13 13 13 11 10 9 8 8 9 10 10 7 5 6 7 7 7 9 11 11 7 5 5 5 5 6 6 7 8 8 7 7 5 4 4 2 1 1 1 0 0 1 0 0 0 1 2 2 2 2 3 3 2 3 4 4 3 3 4 3 3 3 2 1 3 3 4 5 5 3 4 5 6 5 4 3 4 4 4 6 7 7 7 6 7 8 8
12 13 13 11 9 8 7 7 9 10 10 8 6 6 8 8 7 8 8 6 3 3 5 6 4 2 2 5 8 11 12 12 9 3 3 3 1 1 0 0 0 1 1 1 0 1 2 2 1 2 3 2 1 2 4 5 3 1 2 3 3 2 1 1 2 1 1 4 6 5 5 6 6 6 6 7 7 6 5 6 7 7 8 9 8 9 8
11 12 13 11 9 7 6 7 8 9 10 9 6 5 7 7 6 6 6 5 2 2 3 3 2 3 3 5 8 11 11 11 9 7 5 3 1 2 2 1 1 2 2 1 0 1 3 3 1 3 4 1 1 2 2 3 2 1 2 3 2 1 1 2 3 3 2 3 4 4 5 7 6 6 6 6 8 8 8 8 9 9 10 10 10 9 8
10 12 12 11 9 6 5 6 7 9 11 12 9 8 9 9 7 6 7 7 4 2 2 1 1 5 8 8 9 10 9 10 13 14 12 8 6 6 7 5 2 4 3 2 1 2 3 3 2 4 4 2 1 2 2 2 1 1 4 4 2 2 1 1 2 3 4 3 3 4 5 7 7 6 6 5 6 8 10 11 12 13 12 10 10 10 10
10 11 12 11 8 6 4 5 6 8 11 13 13 12 11 10 8 7 6 5 3 2 2 2 1 4 6 8 11 12 12 15 18 20 19 16 11 9 8 5 2 3 2 2 3 2 2 4 3 3 3 1 1 2 2 1 1 3 5 4 3 2 3 1 0 3 4 3 2 2 3 4 4 4 5 5 4 8 10 10 10 12 12 11 9 9 9
9 10 12 10 7 5 4 4 4 6 8 10 11 12 13 13 11 8 5 4 3 2 2 2 1 2 2 6 12 14 14 17 20 23 23 22 20 17 12 5 2 2 2 3 3 2 3 4 3 2 1 1 1 2 1 0 2 4 5 4 3 2 2 1 1 4 4 3 2 1 2 4 3 1 3 3 2 5 8 8 8 9 10 11 11 9 7
9 10 10 9 7 4 3 3 3 4 4 4 5 7 9 11 12 9 7 7 7 5 2 1 1 1 1 4 10 12 13 16 20 23 23 23 23 20 14 7 3 2 2 3 3 3 3 2 1 1 1 0 1 2 1 1 3 5 4 4 3 1 1 2 2 4 4 3 2 1 2 4 3 1 2 3 2 3 5 6 6 7 8 8 8 8 7
9 9 9 8 5 3 2 3 2 3 3 2 2 2 4 6 9 9 7 6 7 5 2 2 2 1 1 3 7 12 14 14 17 20 20 18 15 13 10 6 3 2 2 3 3 2 2 1 1 1 1 1 0 2 2 1 4 4 3 4 3 2 1 1 2 2 3 3 2 1 3 5 4 3 3 3 2 3 4 3 4 4 5 5 5 5 6
9 8 7 6 4 2 3 3 2 3 2 1 2 2 1 1 4 7 6 5 6 5 3 2 1 1 1 1 3 10 13 12 11 11 11 9 8 9 10 8 4 3 3 3 2 2 2 1 2 2 1 3 3 3 2 2 5 4 4 5 4 4 3 3 2 3 4 4 4 4 5 4 2 3 4 4 3 3 3 2 3 3 3 4 4 4 5
8 7 6 5 2 2 3 3 3 3 3 4 5 4 3 1 3 5 4 5 5 4 3 2 1 1 1 1 3 8 10 7 6 6 6 6 6 7 9 8 3 3 4 3 1 2 1 0 1 2 2 3 3 2 2 3 5 3 4 5 3 3 3 3 3 4 3 2 3 5 5 2 1 2 4 4 5 4 3 3 4 5 5 5 5 5 6
7 7 5 3 1 3 4 4 5 6 6 7 8 7 6 4 5 5 5 5 5 4 3 2 2 1 1 1 2 8 9 4 2 3 4 5 4 3 4 4 1 3 6 4 1 1 1 0 1 2 2 2 2 2 3 4 3 1 4 3 2 2 3 3 2 2 2 2 2 1 2 2 1 3 4 5 6 5 4 4 5 6 6 5 5 5 5
6 6 4 1 3 4 4 5 6 7 7 6 5 6 6 5 5 5 4 4 4 4 4 2 2 1 2 1 1 6 8 3 1 2 3 4 4 2 1 2 2 3 5 4 1 1 1 2 2 2 1 2 2 2 2 3 2 2 2 1 1 2 2 2 1 1 2 3 2 1 0 2 4 3 3 4 5 4 3 3 4 4 4 3 3 3 4
5 4 2 2 5 5 5 6 6 6 5 4 4 4 5 6 6 6 6 4 2 2 2 2 2 1 1 1 1 4 6 3 1 1 1 2 3 2 1 1 3 3 2 2 1 2 2 2 1 1 1 2 2 2 2 2 3 3 2 2 2 2 2 1 1 1 2 2 1 1 2 3 4 3 2 2 3 3 3 2 1 1 2 2 2 3 3
4 2 1 5 7 6 5 5 4 3 2 3 3 4 5 6 7 8 9 7 6 3 1 0 1 1 1 1 1 3 4 2 1 1 1 1 2 2 1 2 3 2 1 1 2 2 2 1 1 1 1 1 1 1 1 2 2 3 3 2 1 1 0 2 3 1 1 2 2 2 2 2 2 2 1 2 2 2 2 2 1 2 2 2 2 3 3
2 1 5 8 7 5 3 3 3 3 3 4 5 6 6 4 4 5 6 6 7 6 2 2 2 1 0 1 0 2 2 1 0 1 1 1 1 2 2 2 2 1 1 2 3 2 2 1 1 2 2 1 1 2 2 2 1 1 2 2 2 2 2 2 2 1 2 2 2 2 2 2 2 1 1 2 2 3 3 4 4 4 3 3 3 3 4
2 5 7 7 4 2 1 1 2 4 5 5 5 4 4 3 2 2 2 2 4 4 2 2 2 1 0 1 1 2 1 1 1 1 1 1 0 1 1 2 1 0 1 2 1 1 1 2 2 2 2 1 1 1 1 1 1 1 2 2 2 2 2 0 2 3 2 2 1 1 1 0 1 2 2 2 3 3 4 4 4 5 5 4 3 3 4
6 6 5 3 1 1 2 3 4 6 5 3 2 2 2 3 2 1 1 2 2 2 1 1 1 0 0 1 1 1 1 1 1 1 1 1 0 1 1 1 1 1 2 1 0 0 1 2 2 1 1 1 1 1 1 2 1 1 1 2 2 2 1 2 3 2 1 0 1 1 2 2 1 1 2 2 2 2 2 3 4 5 6 6 5 5 5
6 4 2 1 1 2 4 6 6 5 3 2 2 2 1 2 1 0 0 1 1 1 1 1 1 0 0 1 2 1 2 2 1 1 1 1 0 0 1 1 1 1 1 1 1 1 1 1 1 1 2 2 1 1 0 1 0 0 1 1 2 2 1 0 1 3 3 2 2 3 3 3 2 0 2 2 2 2 3 4 5 6 7 8 8 8 9
5 3 2 2 4 5 7 6 4 3 2 1 2 2 1 1 1 0 1 2 1 0 0 1 1 1 0 0 1 1 2 2 1 1 2 1 1 1 1 1 1 1 1 0 1 1 2 2 1 1 2 3 2 1 0 0 0 1 2 3 3 3 3 3 3 2 1 0 1 1 0 1 2 2 3 5 5 4 4 5 5 5 6 8 9 10 11
5 5 5 6 7 6 5 3 3 2 1 1 2 1 1 0 0 0 1 1 1 0 0 0 1 1 1 1 1 1 1 0 0 1 2 1 0 1 1 1 1 1 1 0 0 1 2 1 0 1 2 2 1 1 1 0 0 1 2 3 3 3 3 3 4 5 4 3 3 3 3 2 1 1 4 6 4 2 2 1 1 3 4 6 8 9 9
9 8 7 6 4 3 2 2 2 1 1 2 2 1 1 1 1 0 0 0 0 0 1 0 0 1 1 1 1 1 1 1 1 1 2 1 1 1 2 2 1 1 1 0 1 2 1 1 2 2 2 1 1 1 1 1 0 1 2 2 2 1 1 2 2 3 3 2 2 2 2 2 1 1 3 4 3 3 3 4 4 4 5 5 5 7 7
8 5 3 2 1 2 1 0 0 1 1 0 1 2 1 0 0 1 1 1 1 1 1 1 1 2 2 1 1 1 1 1 1 2 1 1 1 2 2 1 1 1 1 1 1 1 0 1 2 1 1 0 1 1 1 1 1 1 1 1 1 0 1 2 2 2 2 2 2 3 3 4 5 4 3 4 6 6 6 5 5 5 5 3 2 3 4
3 2 3 2 2 1 0 0 1 0 1 1 1 2 2 2 2 2 1 1 1 2 2 1 1 2 2 1 1 1 0 0 1 1 1 1 2 2 1 1 1 1 1 1 1 1 0 1 2 2 1 2 2 2 2 1 1 1 1 1 1 1 1 2 3 3 3 3 3 3 4 5 6 6 5 4 5 6 6 5 5 5 4 3 1 3 5
1 1 3 3 1 1 1 1 0 0 1 1 1 2 2 2 2 2 1 0 1 2 2 1 1 3 2 0 0 1 1 1 1 1 0 1 2 1 0 1 1 2 2 1 0 1 1 1 2 2 2 2 2 2 1 1 1 1 1 1 1 2 3 3 3 4 4 5 4 4 4 4 5 6 6 6 6 6 6 6 5 5 5 4 4 5 6
1 1 2 2 1 0 1 1 1 1 1 1 1 1 1 1 2 2 1 0 1 3 2 2 2 2 2 1 1 1 1 1 1 1 0 1 2 1 1 1 1 1 1 1 2 2 2 1 1 2 2 1 2 2 1 1 2 1 1 1 2 3 4 4 4 5 5 5 5 5 5 4 5 5 6 7 7 7 6 6 5 5 6 6 6 7 8
1 1 1 2 1 1 1 1 1 1 1 0 0 0 1 1 2 2 1 0 1 2 2 2 2 2 1 1 1 1 1 1 1 1 0 1 1 1 1 1 1 1 2 2 2 2 2 2 2 2 1 1 2 2 2 2 2 1 1 2 2 3 4 4 5 6 6 6 6 6 6 5 6 6 7 7 7 6 5 4 4 4 5 7 8 9 10
3 2 1 1 1 0 0 1 1 1 1 1 1 1 1 2 3 2 1 1 1 1 1 1 2 2 1 1 1 1 1 1 1 1 1 1 1 1 1 1 0 1 2 2 2 1 1 1 1 2 2 1 1 1 1 1 2 2 3 3 3 3 4 4 5 6 6 6 5 6 6 6 6 6 7 8 8 8 6 5 5 5 5 6 8 10 11
2 2 1 1 1 1 1 1 2 2 1 1 1 1 1 3 3 2 0 0 1 1 1 1 2 2 1 1 1 1 1 0 1 1 1 1 1 2 1 1 2 2 2 2 2 1 1 2 1 2 2 1 1 1 1 1 1 2 3 4 3 3 3 4 5 5 6 5 5 5 5 5 5 5 5 6 7 8 8 8 8 8 7 6 7 8 9
1 1 1 1 1 1 2 2 2 2 2 2 2 1 1 2 2 1 1 1 2 2 1 1 1 1 2 1 1 1 1 1 1 1 1 1 1 2 1 1 2 2 2 2 1 1 1 1 2 2 2 1 1 1 1 1 1 2 3 3 3 3 2 3 4 5 5 5 5 5 5 5 4 4 4 4 5 7 8 9 9 9 9 8 7 5 5
1 1 1 0 0 1 1 2 2 2 2 2 1 1 1 1 1 1 1 1 2 2 1 1 1 2 2 1 1 1 1 1 1 1 0 1 1 1 1 1 2 2 2 2 2 1 1 1 1 2 2 1 2 2 2 1 1 1 1 1 1 1 2 2 3 4 5 6 6 7 6 6 5 5 4 4 5 5 6 9 9 9 9 10 9 8 7
Wind_Direction
337 336 336 337 339 338 338 337 338 340 343 345 343 343 354 134 76 8 150 149 63 8 110 13 347 175 326 311 247 257 293 274 299 346 345 256 220 276 229 235 231 215 239 279 302 322 308 284 53 358 30 56 11 333 334 260 203 158 112 105 52 130 142 170 199 276 311 276 119 122 135 134 118 61 39 12 285 281 249 248 173 160 174 142 195 226 137
336 336 336 339 340 340 339 339 338 337 332 318 306 332 71 132 62 61 150 182 332 358 133 29 356 297 334 341 331 312 245 242 292 308 327 343 293 280 271 239 257 291 267 262 289 323 324 340 49 59 94 56 360 345 356 341 230 189 204 187 182 256 232 169 177 165 167 165 166 182 169 123 75 43 17 1 15 33 195 132 133 199 189 170 220 216 103
336 337 338 342 343 342 341 341 339 334 320 273 218 206 76 116 86 54 85 309 343 53 148 99 135 273 342 349 346 347 271 228 268 268 304 322 267 262 302 263 280 350 315 264 309 357 5 312 13 23 320 19 358 347 355 350 328 326 137 141 143 172 329 121 194 205 201 180 181 213 195 42 48 38 7 12 26 1 265 150 183 218 188 166 221 200 101
338 339 341 343 345 345 345 345 343 337 325 203 177 186 242 126 104 30 343 6 41 72 55 88 133 158 53 356 345 358 351 316 280 203 216 326 334 322 322 324 55 8 2 10 7 9 332 271 25 13 331 354 7 342 347 341 333 355 86 110 120 113 66 62 131 196 238 202 58 330 359 339 276 1 2 9 10 335 255 176 196 184 153 178 221 112 121
339 340 343 345 348 348 349 350 349 350 28 147 155 158 13 127 115 142 159 39 46 64 32 43 69 107 186 27 357 344 335 333 320 193 183 6 17 99 18 26 49 28 9 16 352 341 332 359 33 9 344 331 284 316 336 319 330 344 44 74 64 115 116 132 99 66 359 339 356 352 47 60 40 12 4 7 7 354 194 213 326 99 159 197 168 122 134
340 342 345 348 351 352 353 355 355 6 105 134 137 25 32 113 140 158 248 199 132 97 61 128 103 92 164 322 357 348 353 358 349 321 320 2 11 6 57 43 56 57 11 358 342 341 349 22 9 349 354 337 306 336 167 261 339 346 345 353 36 119 124 152 128 91 66 53 57 91 97 85 61 42 24 13 17 33 73 55 349 350 297 199 127 132 125
343 345 348 351 354 355 357 358 358 6 137 144 15 96 64 54 129 55 348 83 133 114 88 135 122 90 36 18 7 353 3 1 335 278 295 359 14 14 22 30 46 52 18 24 21 2 10 21 1 355 5 355 332 345 190 177 355 351 351 12 24 110 100 140 144 106 76 61 60 87 106 104 69 47 31 21 32 53 68 62 29 28 45 83 118 120 93
346 348 351 355 358 358 359 1 360 358 180 199 335 130 114 98 148 125 61 88 72 79 84 97 119 69 4 40 33 344 2 360 339 292 294 4 4 11 19 26 52 51 21 22 41 21 15 337 307 330 3 358 311 311 320 84 343 337 350 358 326 338 116 137 141 121 81 48 49 60 85 106 82 49 26 17 34 51 50 40 24 28 65 105 123 115 79
348 349 353 359 1 1 3 4 3 5 122 188 330 62 81 66 89 115 120 97 359 6 60 43 110 65 359 37 7 349 14 2 335 286 277 324 323 356 14 42 98 76 25 357 247 244 256 264 273 287 300 298 299 320 88 139 315 330 347 343 333 11 116 135 162 157 117 39 37 44 57 93 80 44 14 1 13 27 11 15 19 5 57 129 136 121 96
350 350 355 1 2 4 5 6 7 15 46 186 243 75 116 87 60 72 107 91 345 351 78 50 108 109 53 240 282 301 317 340 333 290 302 271 222 265 254 191 137 96 235 246 249 249 256 272 277 271 265 267 280 285 247 216 237 293 335 330 336 39 124 129 176 172 119 47 16 21 38 141 62 24 346 329 347 3 349 16 23 355 337 156 142 95 104
350 351 358 1 4 8 8 7 10 19 31 60 182 114 170 163 101 62 85 90 29 348 119 78 68 95 122 215 258 250 278 315 312 222 297 293 106 69 173 174 116 242 201 198 274 253 268 285 276 243 243 273 285 307 30 340 253 236 231 277 24 118 114 100 190 181 100 67 24 28 176 205 161 9 329 318 345 14 26 48 17 358 18 93 87 77 85
350 353 359 2 7 13 13 11 13 19 27 33 93 113 159 195 131 75 90 106 131 280 96 83 57 88 157 166 228 235 262 290 283 240 259 285 326 53 158 161 138 272 163 38 4 214 230 274 229 168 92 359 268 44 58 48 22 350 240 256 233 127 114 91 96 82 94 113 140 176 181 58 126 94 359 348 344 4 29 74 40 24 62 89 88 88 89
351 354 359 3 10 17 18 19 18 19 25 31 44 83 176 179 111 81 101 106 118 187 100 97 329 271 203 217 287 270 265 275 271 242 237 250 267 286 238 187 203 344 19 20 51 133 138 348 106 102 32 7 326 5 44 46 25 11 2 303 249 141 123 110 81 51 111 136 132 142 129 34 116 127 15 1 344 349 1 94 59 27 33 91 99 104 106
352 354 359 5 12 19 22 24 24 25 29 37 43 46 162 179 122 88 120 103 87 324 274 116 314 307 314 318 310 303 298 309 299 233 212 212 238 255 255 229 257 348 24 135 115 113 129 118 86 93 359 359 352 353 29 54 48 15 12 3 331 165 137 122 95 33 115 121 90 97 142 95 46 35 12 0 343 338 330 305 32 14 27 112 116 118 118
354 355 359 6 13 20 25 26 27 29 36 46 51 54 69 112 127 127 127 118 114 113 348 291 224 255 271 284 331 342 339 345 342 277 237 218 248 249 248 281 315 347 130 153 103 53 122 133 121 138 144 89 141 329 2 3 183 53 18 7 15 45 73 137 122 81 7 114 105 102 149 89 17 350 343 346 326 312 298 272 355 21 70 120 125 125 125
356 356 360 7 14 20 26 27 27 29 35 46 52 50 52 60 85 102 101 103 109 105 340 247 187 167 150 174 32 32 2 332 330 315 306 320 297 285 279 289 300 314 108 80 68 65 64 78 113 111 100 61 294 123 7 340 329 12 4 5 27 38 41 76 93 88 56 91 99 76 69 75 348 332 326 327 324 301 268 228 28 33 83 131 132 133 140
356 357 1 8 14 20 26 27 28 29 31 39 51 47 42 44 68 90 83 84 92 79 257 190 150 105 89 111 314 35 27 315 348 352 325 335 321 308 313 326 339 112 105 55 35 67 72 86 129 83 69 356 330 49 18 352 3 355 344 355 21 25 24 48 63 71 75 83 92 75 73 50 337 327 319 318 322 238 209 170 46 34 78 138 141 144 150
356 359 3 8 14 22 26 27 29 28 28 36 51 48 40 41 65 93 87 90 94 78 198 195 152 59 83 110 64 136 145 358 13 196 286 310 311 311 322 342 8 35 85 81 62 70 74 80 80 75 60 342 345 93 351 346 27 353 328 332 20 18 14 44 61 69 63 76 99 94 79 24 333 322 313 312 298 197 213 11 355 343 77 133 145 148 145
358 360 3 9 16 23 26 29 29 29 30 37 50 53 47 47 65 95 97 96 96 87 181 212 178 89 141 120 70 107 154 27 351 354 344 355 37 319 304 302 3 352 18 82 77 78 85 85 89 103 79 8 12 104 82 5 15 334 315 330 29 19 19 32 42 46 33 60 99 96 98 48 340 323 309 306 303 218 359 355 326 293 121 123 126 121 105
360 0 2 9 17 23 27 31 31 30 31 38 54 64 59 58 68 85 96 107 110 90 116 237 163 149 163 123 91 120 111 46 7 58 21 323 328 350 272 189 30 349 347 70 74 42 89 104 128 145 86 56 23 110 106 90 70 9 341 24 28 356 359 48 34 17 22 57 67 66 86 17 344 334 327 1 17 349 326 335 350 61 102 102 79 69 89
360 1 2 8 16 23 28 30 32 32 31 36 60 70 67 71 79 87 96 106 109 93 99 276 94 147 170 178 165 165 150 70 261 252 293 271 300 15 73 116 352 3 11 64 94 130 123 103 109 107 90 73 17 142 123 107 87 47 8 67 43 360 359 86 46 350 19 57 57 45 17 330 338 347 356 348 332 307 282 287 55 59 62 69 70 73 92
358 0 3 6 12 21 29 31 33 34 34 40 65 83 82 83 87 89 91 92 89 85 102 99 65 72 77 60 48 41 350 297 267 250 239 257 335 43 99 98 352 112 102 50 101 106 111 106 95 93 82 57 53 83 75 72 77 31 360 27 49 24 21 79 70 48 56 70 69 56 19 346 351 8 349 321 328 332 338 87 99 80 63 71 83 82 84
355 358 0 4 12 21 29 36 38 37 37 42 62 89 96 90 90 97 94 88 83 74 65 64 67 65 57 44 32 23 9 352 325 271 234 219 18 43 111 75 50 131 106 340 71 92 95 105 99 88 79 53 46 77 72 62 61 33 22 40 57 40 11 64 78 77 86 82 68 43 31 27 26 37 36 20 22 20 33 71 88 87 83 82 84 86 86
353 356 357 1 12 23 30 40 45 41 40 45 59 86 98 96 100 112 102 79 75 79 52 42 47 43 348 352 9 14 9 2 355 324 215 203 237 353 13 343 136 139 75 34 345 125 88 95 116 84 78 49 2 66 74 66 59 44 53 66 62 47 33 59 69 78 107 81 55 28 30 37 35 46 61 63 61 58 58 71 81 87 89 89 91 94 93
351 354 356 360 10 24 36 45 52 52 50 52 62 86 97 91 95 115 105 75 83 124 79 38 353 352 14 18 16 10 4 9 27 58 91 109 83 80 114 153 53 66 91 98 170 104 79 78 96 90 84 46 337 43 58 60 60 31 52 62 48 11 22 41 45 49 69 73 55 45 59 60 49 52 64 69 75 79 81 87 92 93 91 91 93 94 91
349 352 356 360 8 24 40 51 64 69 66 65 69 83 90 84 81 96 100 91 89 82 80 126 322 13 38 43 22 9 19 47 62 67 69 74 89 111 133 147 83 58 85 99 70 75 82 78 70 76 76 52 18 64 64 62 83 76 60 54 346 306 2 12 33 71 88 93 98 107 93 71 56 56 60 62 80 93 97 100 104 104 101 95 91 94 102
347 351 355 359 8 25 44 63 81 86 81 74 70 74 80 80 82 93 95 92 95 63 75 135 284 351 30 37 21 23 47 67 72 69 65 67 83 104 118 126 91 61 65 61 59 64 78 77 67 57 64 71 55 65 69 74 87 76 60 38 333 355 65 66 116 93 90 91 111 134 107 86 76 64 55 54 82 105 109 111 113 115 118 117 114 113 120
346 351 354 358 9 28 46 74 96 107 101 83 68 69 73 69 68 76 71 63 90 116 119 135 278 324 36 25 15 26 50 61 65 67 63 60 65 70 72 72 72 61 44 57 75 67 57 74 84 63 68 135 95 61 57 88 72 63 49 17 353 31 49 353 49 79 79 88 119 154 106 103 118 92 49 41 72 112 119 123 123 126 133 137 139 141 144
344 350 355 360 12 31 52 80 106 132 130 95 55 61 71 60 54 60 65 74 90 103 109 101 15 359 36 347 356 19 44 54 59 60 57 53 53 52 51 52 59 62 67 78 84 79 64 73 109 71 30 314 125 73 57 57 66 57 32 358 354 4 295 309 33 71 79 96 145 183 100 98 112 98 62 47 51 104 118 121 126 136 145 148 147 149 149
342 349 357 2 12 38 67 77 107 157 158 132 13 37 68 48 40 46 58 81 96 100 100 105 87 32 306 302 350 11 21 35 51 52 48 47 45 38 40 54 53 36 64 72 62 80 97 64 48 73 28 322 96 98 79 85 89 68 18 355 6 21 18 349 346 33 78 97 140 151 90 96 111 112 98 85 76 98 112 114 124 141 152 158 156 145 142
337 346 356 2 12 68 90 77 103 152 147 89 7 34 109 55 24 34 53 83 99 103 95 95 105 11 339 329 7 4 1 14 38 42 36 38 37 33 43 55 40 16 48 76 63 70 92 28 21 61 22 357 47 94 92 91 98 75 11 358 11 25 42 47 43 64 84 104 122 107 93 102 132 123 113 102 83 87 104 106 118 137 143 141 134 122 132
336 347 355 0 20 115 106 83 105 136 111 80 72 79 101 97 28 34 60 86 97 105 97 76 83 54 356 335 352 353 354 10 36 31 20 21 16 23 39 50 50 35 50 80 102 54 44 335 28 57 18 355 31 86 76 76 91 69 355 351 3 15 40 67 86 90 80 77 106 107 108 132 187 94 100 99 90 97 115 120 123 132 130 119 108 108 123
334 344 348 358 92 133 116 92 106 121 112 97 87 76 71 65 47 47 73 91 89 92 92 91 105 77 353 262 338 358 359 7 30 23 24 17 356 357 29 33 35 33 30 35 64 48 17 313 59 53 23 358 40 84 66 55 60 339 319 326 341 14 57 77 93 93 49 13 9 93 138 156 123 98 103 99 89 97 122 132 128 128 126 118 110 111 120
328 340 347 33 141 138 121 109 116 121 116 104 87 63 54 61 58 54 74 94 89 77 63 68 124 84 354 285 5 4 5 14 29 16 29 14 355 356 32 15 19 36 25 19 46 71 32 23 35 41 11 356 26 73 69 42 11 336 334 4 11 38 79 87 68 359 359 4 1 342 23 112 109 98 91 81 73 84 111 125 131 134 129 122 123 130 138
325 334 343 149 145 133 120 115 117 115 101 85 74 56 58 73 74 67 68 71 77 84 43 29 101 128 29 60 78 356 0 26 52 354 16 22 9 20 73 39 37 39 9 354 41 56 28 7 8 27 353 348 20 62 59 9 353 353 22 52 38 47 78 72 3 350 353 355 18 53 85 119 126 115 88 70 64 84 106 102 113 152 150 149 148 150 163
319 317 146 141 136 126 114 103 98 96 87 82 82 78 80 89 84 74 70 63 60 82 133 23 68 108 103 105 116 333 350 32 78 330 345 43 18 24 58 64 56 44 343 8 51 42 5 335 353 38 21 14 55 53 340 312 331 353 21 36 8 347 348 310 301 317 31 34 56 70 76 108 122 115 117 121 103 113 139 161 173 162 181 205 191 178 189
297 163 139 137 130 108 79 67 73 86 102 112 109 94 83 87 80 62 61 55 45 50 85 129 94 89 166 130 116 323 341 31 27 352 19 46 2 359 24 50 64 42 356 30 40 20 1 4 42 62 58 38 2 328 301 272 257 313 353 5 336 302 297 293 270 184 119 83 75 78 81 112 125 137 176 184 169 166 184 197 192 190 213 225 204 202 212
163 140 135 134 121 69 31 94 110 110 115 119 115 90 51 38 43 39 27 14 16 23 41 94 92 77 166 93 38 342 353 62 42 20 48 79 27 21 40 52 65 37 25 37 9 336 22 33 40 66 69 19 327 309 298 278 246 268 314 332 328 320 318 206 166 157 143 115 104 120 135 174 177 176 189 202 204 203 207 206 202 211 231 242 236 234 231
145 137 125 116 99 109 156 145 124 121 121 105 85 65 20 18 43 44 348 338 359 6 10 62 89 151 158 102 76 13 14 52 68 57 58 42 357 47 73 74 57 58 69 76 286 297 61 41 25 61 92 43 22 83 347 315 294 263 289 299 308 315 295 197 199 216 232 307 338 271 266 287 291 212 179 197 231 238 222 208 213 228 242 252 255 248 235
143 133 105 89 109 127 134 132 126 127 122 57 35 49 48 33 44 96 55 32 33 7 3 61 100 202 257 121 120 74 18 20 64 99 89 71 15 64 93 89 71 64 64 50 353 27 78 80 50 115 147 163 171 165 272 305 297 138 327 324 340 359 18 37 262 268 264 274 297 290 275 273 284 249 163 167 186 207 202 206 219 234 246 253 254 249 244
145 133 109 124 132 126 123 120 108 96 85 42 31 41 60 54 32 53 80 76 64 304 304 95 122 125 6 48 116 86 35 20 51 104 93 65 17 57 86 75 57 79 89 37 11 57 84 96 85 149 173 175 178 209 249 290 15 28 16 11 25 43 53 54 50 42 27 287 308 331 301 271 277 238 177 165 168 180 191 195 204 221 238 250 253 253 252
151 139 123 122 123 120 111 90 56 47 66 75 55 30 12 71 71 35 70 105 155 202 82 53 93 92 64 37 83 93 64 357 9 82 85 69 37 97 97 59 35 83 107 166 356 59 72 86 142 206 196 187 196 210 186 135 37 9 358 357 13 44 64 69 66 60 52 44 47 60 68 64 15 197 169 161 163 190 226 239 247 258 268 270 264 256 251
139 133 123 118 105 76 52 35 33 48 51 57 68 64 344 6 41 47 27 313 230 130 97 96 121 96 68 23 35 67 55 32 40 65 75 71 18 59 72 52 38 77 94 58 40 72 92 168 196 179 161 161 203 214 187 157 304 305 316 329 340 10 52 61 61 53 44 43 43 38 36 32 12 248 203 202 225 270 301 325 336 329 317 300 272 252 240
129 116 99 84 32 20 32 357 17 103 109 81 111 135 153 172 158 166 157 163 173 148 129 158 164 117 80 22 19 61 57 47 65 70 73 71 38 47 68 70 37 39 62 43 44 61 136 230 215 186 158 175 211 202 178 163 182 259 303 315 312 331 40 29 19 10 7 17 20 13 9 8 4 347 288 258 262 276 295 321 342 340 333 326 281 235 221
117 62 51 45 3 351 68 307 335 60 157 190 168 151 162 176 179 178 174 165 148 130 119 130 129 107 84 15 11 84 64 13 58 64 59 73 59 51 73 110 89 57 62 69 69 75 228 213 187 179 198 203 182 170 166 172 181 218 280 290 300 10 4 353 344 344 348 349 344 339 343 348 352 355 347 319 294 286 291 306 322 325 322 316 253 209 203
95 93 94 92 11 309 109 116 314 260 178 188 183 171 174 172 160 162 177 116 111 119 121 115 97 92 86 42 39 81 53 40 72 68 18 89 88 79 107 139 93 59 61 68 159 229 221 193 174 181 194 188 166 156 162 171 168 171 206 240 311 333 331 326 318 317 327 332 324 309 308 318 329 339 343 341 335 327 318 311 303 295 291 280 243 219 214
92 78 90 101 132 301 83 142 221 224 192 217 220 181 172 150 125 110 78 75 133 129 114 89 78 84 83 64 75 73 38 41 76 74 336 94 100 80 30 67 94 116 139 164 224 242 226 194 192 199 196 181 174 185 191 173 163 176 212 253 294 307 312 316 316 315 323 328 318 304 299 296 296 304 314 321 327 332 332 324 302 277 265 262 250 234 230
117 84 75 119 168 191 157 184 193 125 64 320 290 156 163 133 105 83 44 35 124 113 103 106 110 96 61 31 60 80 46 50 81 94 27 93 104 76 28 39 10 255 194 185 210 223 185 172 179 184 176 168 177 187 190 176 167 183 212 234 265 294 308 312 309 312 321 324 317 309 306 299 287 282 284 288 294 304 317 328 321 289 266 259 253 245 240
102 99 95 129 157 151 206 206 131 67 42 14 56 99 102 99 99 94 64 69 89 87 98 125 119 106 66 12 49 75 50 50 96 102 46 58 101 133 122 118 182 224 199 196 219 226 181 168 160 152 156 168 176 183 195 196 193 213 233 243 259 292 310 311 311 321 331 333 322 314 314 313 304 292 282 278 280 284 284 287 295 295 286 271 262 255 250
71 85 92 107 112 116 169 158 112 99 93 75 96 113 113 106 108 115 238 135 112 95 64 65 77 83 77 43 49 61 42 354 118 114 93 101 144 140 130 170 208 197 174 182 212 212 173 161 155 148 154 163 166 174 197 202 204 236 261 272 283 297 306 310 318 332 346 353 346 332 326 324 321 313 298 285 282 283 279 273 270 271 275 278 273 263 255
36 62 85 135 141 148 165 155 128 133 152 148 135 143 130 110 116 153 200 142 111 85 72 76 73 69 69 65 65 98 121 89 75 83 101 176 165 140 135 197 217 203 174 181 205 194 156 156 155 148 148 160 181 199 213 220 243 280 293 294 289 291 303 318 327 335 349 3 5 357 347 337 331 325 317 303 295 289 282 272 264 258 257 260 261 253 245
62 68 80 240 28 114 132 115 95 114 138 130 124 157 135 106 127 172 169 120 87 76 98 135 101 75 88 120 149 114 99 76 53 56 184 188 178 181 191 198 190 176 167 166 162 151 162 187 186 172 157 142 145 165 181 201 254 283 283 260 248 281 318 335 340 348 357 360 357 352 345 337 327 319 313 303 290 280 276 276 276 271 262 255 252 249 252